Regional Weather Roundup
Issued by NWS

Home | Current Version | Previous Version | Text Only | Print | Product List | Glossary Off
Versions: 1 2 3 4 5 6 7 8 9 10 11 12 13 14 15 16 17 18 19 20 21 22 23 24 25 26 27 28 29 30 31 32 33 34 35 36 37 38 39 40 41 42 43 44 45 46 47 48 49 50

000
ASUS43 KLSX 280259
RWRMO

WEATHER SUMMARY FOR MISSOURI
NATIONAL WEATHER SERVICE SPRINGFIELD MO
900 PM CST THU NOV 27 2014

NOTE: "FAIR" INDICATES FEW OR NO CLOUDS BELOW 12,000 FEET WITH NO
       SIGNIFICANT WEATHER AND/OR OBSTRUCTIONS TO VISIBILITY.
       CURRENT SKY AND/OR WEATHER CONDITIONS ARE NOT AVAILABLE FOR
       CHILLICOTHE AND FARMINGTON.

MOZ001>031-035>038-043-044-053-054-280400-
...NORTHERN AND WESTERN MISSOURI...

CITY           SKY/WX    TMP DP  RH WIND       PRES   REMARKS
KANSAS CTY INT PTCLDY    28  22  78 SE8       30.31S WCI  20
KANSAS C DTWN  PTCLDY    33  22  63 SE6       30.32F WCI  28
LEE`S SUMMIT   PTCLDY    32  22  66 SE8       30.32F WCI  25
ST JOSEPH      CLEAR     28  21  75 SE6       30.31F WCI  22
CHILLICOTHE      N/A     29  20  69 SE5       30.36F WCI  24
KIRKSVILLE     CLOUDY    19  14  81 SE10      30.38F WCI   7

$$
MOZ066>068-077>081-088>096-101>105-280400-
...SOUTHWEST MISSOURI...

CITY           SKY/WX    TMP DP  RH WIND       PRES   REMARKS
SPRINGFIELD    PTCLDY    32  22  66 SE9       30.34F WCI  24
JOPLIN         CLEAR     34  21  59 SE5       30.34F WCI  30

$$
MOZ032>034-039>042-045>050-055>058-069>072-280400-
...CENTRAL MISSOURI...

CITY           SKY/WX    TMP DP  RH WIND       PRES   REMARKS
COLUMBIA       CLOUDY    30  24  78 E7        30.38F WCI  23
JEFFERSON CITY CLOUDY    31  25  78 E3        30.41F
ROLLA          CLOUDY    30  23  75 E8        30.36F WCI  22
SEDALIA        MOCLDY    31  24  75 SE7       30.36F WCI  24
OSAGE BEACH    CLOUDY    32  21  64 SE3       30.37F

$$
MOZ051-052-059>065-280400-
...EAST CENTRAL MISSOURI...

CITY           SKY/WX    TMP DP  RH WIND       PRES   REMARKS
ST LOUIS INTL  PTCLDY    25  17  72 E7        30.45S WCI  17
SPIRIT OF STL  PTCLDY    26  21  81 E3        30.44F
ST CHARLES     CLEAR     21  17  84 E6        30.45F WCI  13

$$
MOZ072>076-082>087-097>100-106>115-280400-
...SOUTH CENTRAL AND SOUTHEAST MISSOURI...

CITY           SKY/WX    TMP DP  RH WIND       PRES   REMARKS
CAPE GIRARDEAU CLEAR     30  27  88 CALM      30.48S
FARMINGTON     PTCLDY    28  23  80 CALM      30.43F
POPLAR BLUFF   CLEAR     28  24  85 CALM      30.45F
WEST PLAINS    PTCLDY    33  21  61 SE3       30.40F

$$



USA.gov is the U.S. government's official web portal to all federal, state and local government web resources and services.